Time,TemperatureF,DewpointF,PressureIn,WindDirection,WindDirectionDegrees,WindSpeedMPH,WindSpeedGustMPH,Humidity,HourlyPrecipIn,Conditions,Clouds,dailyrainin,SoftwareType,DateUTC
2013-06-27 00:27:00,58.3,56.6,30.04,WNW,300,4.0,5.0,94,0.00,,,0.00,Wunderground v.1.15,2013-06-27 07:27:00,
2013-06-27 00:57:00,57.9,56.5,30.04,North,354,4.0,4.0,95,0.00,,,0.00,Wunderground v.1.15,2013-06-27 07:57:00,
2013-06-27 01:27:00,57.7,56.3,30.04,North,357,4.0,4.0,95,0.00,,,0.00,Wunderground v.1.15,2013-06-27 08:27:00,
2013-06-27 01:57:00,58.6,56.6,30.04,North,350,4.0,4.0,93,0.00,,,0.00,Wunderground v.1.15,2013-06-27 08:57:00,
2013-06-27 02:27:00,58.1,56.4,30.04,NW,318,4.0,4.0,94,0.00,,,0.00,Wunderground v.1.15,2013-06-27 09:27:00,
2013-06-27 02:57:00,58.5,56.5,30.03,NW,317,4.0,4.0,93,0.00,,,0.00,Wunderground v.1.15,2013-06-27 09:57:00,
2013-06-27 03:27:00,58.7,56.7,30.03,WNW,296,2.0,2.0,93,0.00,,,0.00,Wunderground v.1.15,2013-06-27 10:27:00,
2013-06-27 03:57:00,58.1,56.1,30.03,WNW,290,1.0,3.0,93,0.00,,,0.00,Wunderground v.1.15,2013-06-27 10:57:00,
2013-06-27 04:27:00,56.7,55.0,30.03,WNW,295,1.0,1.0,94,0.00,,,0.00,Wunderground v.1.15,2013-06-27 11:27:00,
2013-06-27 04:57:00,55.9,54.8,30.03,WNW,297,0.0,0.0,96,0.00,,,0.00,Wunderground v.1.15,2013-06-27 11:57:00,
2013-06-27 05:27:00,55.7,54.6,30.04,WNW,297,0.0,0.0,96,0.00,,,0.00,Wunderground v.1.15,2013-06-27 12:27:00,
2013-06-27 05:57:00,54.9,53.8,30.04,WNW,297,0.0,0.0,96,0.00,,,0.00,Wunderground v.1.15,2013-06-27 12:57:00,
2013-06-27 06:27:00,55.6,54.8,30.05,WNW,297,1.0,1.0,97,0.00,,,0.00,Wunderground v.1.15,2013-06-27 13:27:00,
2013-06-27 06:57:00,56.6,55.8,30.04,WNW,297,0.0,0.0,97,0.00,,,0.00,Wunderground v.1.15,2013-06-27 13:57:00,
2013-06-27 07:27:00,58.7,57.3,30.05,WNW,294,3.0,3.0,95,0.00,,,0.00,Wunderground v.1.15,2013-06-27 14:27:00,
2013-06-27 07:57:00,62.0,59.0,30.06,WNW,291,3.0,6.0,90,0.00,,,0.00,Wunderground v.1.15,2013-06-27 14:57:00,
2013-06-27 08:27:00,64.6,60.0,30.06,WNW,283,3.0,3.0,85,0.00,,,0.00,Wunderground v.1.15,2013-06-27 15:27:00,
2013-06-27 08:57:00,67.9,60.8,30.07,SE,134,1.0,1.0,78,0.00,,,0.00,Wunderground v.1.15,2013-06-27 15:57:00,
2013-06-27 09:27:00,68.7,61.2,30.07,ESE,120,1.0,1.0,77,0.00,,,0.00,Wunderground v.1.15,2013-06-27 16:27:00,
2013-06-27 09:57:00,69.9,60.8,30.07,NNW,331,4.0,4.0,73,0.00,,,0.00,Wunderground v.1.15,2013-06-27 16:57:00,
2013-06-27 10:27:00,71.5,60.8,30.07,West,265,7.0,7.0,69,0.00,,,0.00,Wunderground v.1.15,2013-06-27 17:27:00,
2013-06-27 10:57:00,72.8,61.6,30.07,WNW,294,8.0,9.0,68,0.00,,,0.00,Wunderground v.1.15,2013-06-27 17:57:00,
2013-06-27 11:27:00,73.8,61.3,30.07,NW,308,8.0,8.0,65,0.00,,,0.00,Wunderground v.1.15,2013-06-27 18:27:00,
2013-06-27 11:57:00,75.2,61.3,30.07,NW,317,8.0,11.0,62,0.00,,,0.00,Wunderground v.1.15,2013-06-27 18:57:00,
2013-06-27 12:27:00,76.7,58.8,30.07,NW,312,9.0,9.0,54,0.00,,,0.00,Wunderground v.1.15,2013-06-27 19:27:00,
2013-06-27 12:57:00,78.0,57.9,30.06,WNW,283,9.0,12.0,50,0.00,,,0.00,Wunderground v.1.15,2013-06-27 19:57:00,
2013-06-27 13:27:00,77.7,57.6,30.07,WNW,292,10.0,14.0,50,0.00,,,0.00,Wunderground v.1.15,2013-06-27 20:27:00,
2013-06-27 13:57:00,78.8,56.3,30.06,WNW,290,10.0,10.0,46,0.00,,,0.00,Wunderground v.1.15,2013-06-27 20:57:00,
2013-06-27 14:27:00,79.2,57.8,30.05,NW,306,10.0,10.0,48,0.00,,,0.00,Wunderground v.1.15,2013-06-27 21:27:00,
2013-06-27 14:57:00,79.0,57.0,30.05,NW,309,10.0,10.0,47,0.00,,,0.00,Wunderground v.1.15,2013-06-27 21:57:00,
2013-06-27 15:27:00,79.0,56.5,30.05,WNW,299,11.0,11.0,46,0.00,,,0.00,Wunderground v.1.15,2013-06-27 22:27:00,
2013-06-27 15:57:00,77.6,56.9,30.04,WNW,296,12.0,12.0,49,0.00,,,0.00,Wunderground v.1.15,2013-06-27 22:57:00,
2013-06-27 16:27:00,77.4,57.3,30.03,WNW,290,12.0,12.0,50,0.00,,,0.00,Wunderground v.1.15,2013-06-27 23:27:00,
2013-06-27 16:57:00,77.0,56.4,30.03,WNW,288,11.0,13.0,49,0.00,,,0.00,Wunderground v.1.15,2013-06-27 23:57:00,
2013-06-27 17:27:00,77.0,56.9,30.02,NW,309,11.0,11.0,50,0.00,,,0.00,Wunderground v.1.15,2013-06-28 00:27:00,
2013-06-27 17:57:00,76.3,56.8,30.01,NW,304,10.0,11.0,51,0.00,,,0.00,Wunderground v.1.15,2013-06-28 00:57:00,
2013-06-27 18:27:00,75.2,56.4,30.01,NW,307,7.0,9.0,52,0.00,,,0.00,Wunderground v.1.15,2013-06-28 01:27:00,
2013-06-27 18:57:00,72.8,56.2,30.01,NW,323,8.0,10.0,56,0.00,,,0.00,Wunderground v.1.15,2013-06-28 01:57:00,
2013-06-27 19:27:00,70.4,55.4,30.00,NNW,328,7.0,7.0,59,0.00,,,0.00,Wunderground v.1.15,2013-06-28 02:27:00,
2013-06-27 19:57:00,68.8,55.2,30.00,NW,312,5.0,9.0,62,0.00,,,0.00,Wunderground v.1.15,2013-06-28 02:57:00,
2013-06-27 20:28:00,67.8,54.7,30.00,NW,314,8.0,8.0,63,0.00,,,0.00,Wunderground v.1.15,2013-06-28 03:28:00,
2013-06-27 20:58:00,68.3,54.8,30.00,NW,317,5.0,5.0,62,0.00,,,0.00,Wunderground v.1.15,2013-06-28 03:58:00,
2013-06-27 21:27:00,69.2,54.7,30.01,WNW,303,6.0,6.0,60,0.00,,,0.00,Wunderground v.1.15,2013-06-28 04:27:00,
2013-06-27 21:57:00,68.0,54.9,30.01,WNW,295,6.0,7.0,63,0.00,,,0.00,Wunderground v.1.15,2013-06-28 04:57:00,
2013-06-27 22:27:00,67.6,55.4,30.02,WNW,290,3.0,3.0,65,0.00,,,0.00,Wunderground v.1.15,2013-06-28 05:27:00,
2013-06-27 22:57:00,64.7,55.5,30.03,WNW,286,2.0,3.0,72,0.00,,,0.00,Wunderground v.1.15,2013-06-28 05:57:00,
2013-06-27 23:27:00,63.4,55.7,30.02,WNW,300,2.0,3.0,76,0.00,,,0.00,Wunderground v.1.15,2013-06-28 06:27:00,
2013-06-27 23:57:00,63.8,56.8,30.02,WNW,298,5.0,6.0,78,0.00,,,0.00,Wunderground v.1.15,2013-06-28 06:57:00,